MGGTMHTG

Guest
Details From MGGT - La Aurora
To MHTG - Tegucigalpa Toncontin Intl
Flight Number -
Tags generated
Created
Modified
Stats Distance 195 nm / 361 km
Max Altitude 21,900 ft / 6,675 m
Waypoints 5
Social Downloads 0
Likes 0
Share VATSIM

Download

Looking for another format? Having issues loading an existing format? Contact us
Advertisement - Login to hide

Notes

Basic altitude profile: - Ascent Rate: 2500ft/min - Ascent Speed: 250kts - Cruise Altitude: 35000ft - Cruise Speed: 420kts - Descent Rate: 1500ft/min - Descent Speed: 250kts Options: - Use NATs: yes - Use PACOTS: yes - Use low airways: yes - Use high airways: yes

Route

MGGT LAGOX A552 NOVOG UA552 URNOS MHTG

ID Type Via Altitude Latitude Longitude Leg Dist Tot Dist Heading (true) Name
O MGGT APT - 0 ft / 0 m 14.58327˚ -90.52747˚ - 0 nm - La Aurora
LAGOX FIX - 9,600 ft / 2,926 m 14.51667˚ -90.06833˚ 26 nm 26 nm 98° / 99° -
NOVOG FIX A552 (AWY-LO) 19,500 ft / 5,944 m 14.36111˚ -89.17139˚ 52 nm 79 nm 100° / 100° -
URNOS FIX UA552 (AWY-HI) 21,900 ft / 6,675 m 14.32500˚ -88.95500˚ 12 nm 92 nm 100° / 100° -
O MHTG APT - 0 ft / 0 m 14.06088˚ -87.21720˚ 102 nm 195 nm 99° / 99° Tegucigalpa Toncontin Intl

Altitude Profile

Advertisement - Login to hide

Weather


0- 5 10 15 20 25 30 35+ Temperature / ° C

Clouds and Precipitation
Forecast for 2018-05-27 06:00 UTC. Updated 3 hours ago

Ground ~20,000 ft ~40,000 ft Winds

MGGT

Details ICAO MGGT (GUA)
Name La Aurora
Region Guatemala
Timezone America/Guatemala (UTC-6.0)
Stats Elevation 4,952 ft / 1,509 m (AMSL)
Location 14.583272° -90.527473°
Runways 1
Magnetic Variation 1.009° E

METAR

MGGT 270800Z 00000KT 9999 SCT006 SCT014 18/17 Q1021 A3015

Decode

TAF

TAF MGGT 262300Z 2700/2724 VRB03KT 9999 SCT016 BKN080 TX25/2720Z TN18/2712Z PROB30 2700/2703 7000 TSRA SCT025CB TEMPO 2703/2715 00000KT 5000 BR RADZ BKN014 BECMG 2715/2717 18008KT SCT018

Decode

Departure Runways

ID Width Length Bearing (true) Bearing (mag) Surface Threshold Offset Overrun Length
01 196 ft / 60 m 9,841 ft / 3,000 m 17.29° 16.28° Asphalt 0 ft / 0 m 0 ft / 0 m
19 196 ft / 60 m 9,841 ft / 3,000 m 197.29° 196.28° Asphalt 722 ft / 220 m 0 ft / 0 m

MHTG

Details ICAO MHTG (TGU)
Name Tegucigalpa Toncontin Intl
Region Honduras
Timezone America/Tegucigalpa (UTC-6.0)
Stats Elevation 3,294 ft / 1,004 m (AMSL)
Location 14.060883° -87.217197°
Runways 1
Magnetic Variation 0.723° W

METAR

MHTG 270800Z 24002KT 8000 4000NW -RA FEW008 SCT022 FEW028CB BKN070 20/20 Q1015 A2997 NOSIG

Decode

TAF

Not found

Destination Runways

ID Width Length Bearing (true) Bearing (mag) Surface Threshold Offset Overrun Length
02 148 ft / 45 m 6,140 ft / 1,872 m 18.87° 19.59° Asphalt 670 ft / 204 m 100 ft / 30 m
20 148 ft / 45 m 6,140 ft / 1,872 m 198.87° 199.59° Asphalt 0 ft / 0 m 200 ft / 61 m

Popular Alternatives